User: anonymous   Login
Location: Ward Pound Ridge Reservation
(41.2500°N, 73.6000°W)
Time: 10:34:00
(UTC-04:00)
Language:

FO-29 - Orbit

View from above orbital plane
View from above orbital plane
View from above satellite
View from above satellite

Ground track
Ground track

The orbit data is extracted from the following two-line orbital elements,

1 24278U 96046B   18229.75088568 -.00000037  00000-0  14446-5 0  9992
2 24278  98.5157  60.0173 0349551 311.3085  45.8447 13.53084901 86566
Epoch (UTC): 17 August 2018 18:01:16
Eccentricity: 0.0349551
inclination: 98.5157°
perigee height: 801 km
apogee height: 1321 km
right ascension of ascending node: 60.0173°
argument of perigee: 311.3085°
revolutions per day: 13.53084901
mean anomaly at epoch: 45.8447°
orbit number at epoch: 8656

The dashed part of the orbit path shows where the satellite is in the earth's shadow,  

DLR